This is the latest recevied weather packets stored in our database for station/object KC4GS-13. If no packets are shown the sender has not sent any weather packets the latest 10 day(s).
| Time | Temp. | Humidity | Pressure | Rain* | Wind** | Luminosity | Snow |
|---|---|---|---|---|---|---|---|
| 1778000329 | 26.67° C | 45% | 1017.8 hPa | 0 mm | - | 779 W/m² | - |
| 1778000025 | 26.67° C | 47% | 1017.6 hPa | 0 mm | - | 779 W/m² | - |
| 1777999721 | 26.67° C | 46% | 1017.7 hPa | 0 mm | - | 388 W/m² | - |
| 1777999417 | 26.67° C | 46% | 1017.8 hPa | 0 mm | - | 751 W/m² | - |
| 1777999116 | 26.67° C | 45% | 1017.9 hPa | 0 mm | - | 484 W/m² | - |
| 1777998814 | 26.67° C | 47% | 1017.9 hPa | 0 mm | - | 386 W/m² | - |
| 1777998513 | 26.67° C | 48% | 1017.9 hPa | 0 mm | - | 344 W/m² | - |
| 1777998208 | 26.11° C | 49% | 1018.1 hPa | 0 mm | - | 275 W/m² | - |
| 1777997905 | 26.67° C | 50% | 1018 hPa | 0 mm | - | 151 W/m² | - |
| 1777997603 | 26.11° C | 49% | 1017.9 hPa | 0 mm | - | 122 W/m² | - |
| 1777997300 | 26.11° C | 52% | 1017.9 hPa | 0 mm | - | 342 W/m² | - |
| 1777996998 | 26.11° C | 52% | 1018.2 hPa | 0 mm | - | 558 W/m² | - |
| 1777996694 | 25.56° C | 54% | 1018.3 hPa | 0 mm | - | 741 W/m² | - |
| 1777996390 | 25.56° C | 55% | 1018.2 hPa | 0 mm | - | 864 W/m² | - |
| 1777996086 | 25.56° C | 55% | 1018.2 hPa | 0 mm | - | 857 W/m² | - |
| 1777995783 | 25° C | 58% | 1018.2 hPa | 0 mm | - | 888 W/m² | - |
| 1777995479 | 25° C | 57% | 1017.9 hPa | 0 mm | - | 887 W/m² | - |
| 1777995176 | 25° C | 59% | 1018.2 hPa | 0 mm | - | 903 W/m² | - |
| 1777994874 | 25° C | 60% | 1018.6 hPa | 0 mm | - | 912 W/m² | - |
| 1777994570 | 25° C | 60% | 1018.4 hPa | 0 mm | - | 859 W/m² | - |
| 1777994264 | 24.44° C | 61% | 1018.4 hPa | 0 mm | - | 819 W/m² | - |
| 1777993962 | 23.89° C | 61% | 1018.8 hPa | 0 mm | - | 459 W/m² | - |
| 1777993658 | 23.33° C | 64% | 1018.6 hPa | 0 mm | - | 513 W/m² | - |
| 1777993356 | 22.78° C | 64% | 1018.9 hPa | 0 mm | - | 818 W/m² | - |
| 1777993050 | 22.78° C | 67% | 1018.8 hPa | 0 mm | - | 747 W/m² | - |
* Rain latest hour (hover to see other rain measurements)
** Current wind speed in m/s (hover to see current wind gust speed)